Pau, France

4:13 AM CEST on July 26, 2016 (GMT +0200)
Pau / Pyrenees

Weather History for LFBP - December, 2013

Change the Weather History Date:

Sunday, December 8, 2013

  Actual Average Record
Temperature  
Mean Temperature 40 °F -  
Max Temperature 55 °F 50 °F 68 °F (2010)
Min Temperature 26 °F 35 °F 26 °F (2013)
Degree Days  
Heating Degree Days 24    
Moisture  
Dew Point 33 °F    
Average Humidity 85    
Maximum Humidity 100    
Minimum Humidity 47    
Precipitation  
Precipitation 0.00 in - - ()
Sea Level Pressure  
Sea Level Pressure 30.31 in    
Wind  
Wind Speed 2 mph ()    
Max Wind Speed 6 mph    
Max Gust Speed -    
Visibility 3.6 miles    
Events Fog    
Averages and records for this station are not official NWS values.
T = Trace of Precipitation, MM = Missing Value Source: Averaged Metar Reports

Daily Weather History Graph

Daily Weather History Graph

Search for Another Location

Airport or City:

Trip Planner

Search our weather history database for the weather conditions in past years. The results will help you decide how hot, cold, wet, or windy it might be!

Date:

Astronomy

Dec. 08, 2013 Rise Set
Actual Time 8:21 AM CET 5:25 PM CET
Civil Twilight 7:49 AM CET 5:58 PM CET
Nautical Twilight 7:13 AM CET 6:33 PM CET
Astronomical Twilight 6:38 AM CET 7:08 PM CET
Moon 12:25 PM CET (12/8) No Moon Set
Length of Visible Light 10h 08m
Length of Day
9h 04m
Waxing Crescent, 37% of the Moon is Illuminated
Dec 8
Waxing Crescent
Dec 9
First Quarter
Dec 17
Full
Dec 25
Last Quarter
Jan 1
New

Hourly Weather History & Observations

Time (CET) Temp. Windchill Dew Point Humidity Pressure Visibility Wind Dir Wind Speed Gust Speed Precip Events Conditions
12:00 AM 30.2 °F - 28.4 °F 93% 30.30 in 3.1 mi Calm Calm - N/A   Mist
12:30 AM 30.2 °F - 30.2 °F 100% 30.30 in - ESE 1.2 mph - N/A   Mist
1:00 AM 30.2 °F 26.7 °F 30.2 °F 100% 30.30 in - ESE 3.5 mph - N/A   Mist
1:30 AM 30.2 °F 26.7 °F 28.4 °F 93% 30.30 in - SE 3.5 mph - N/A   Mist
2:00 AM 30.2 °F - 28.4 °F 93% 30.30 in 3.1 mi ESE 2.3 mph - N/A   Mist
2:30 AM 30.2 °F 25.4 °F 30.2 °F 100% 30.27 in - SE 4.6 mph - N/A   Mist
3:00 AM 30.2 °F 26.7 °F 28.4 °F 93% 30.27 in 3.1 mi ESE 3.5 mph - N/A   Mist
3:30 AM 30.2 °F 26.7 °F 30.2 °F 100% 30.27 in - SE 3.5 mph - N/A   Mist
4:00 AM 30.2 °F - 28.4 °F 93% 30.27 in 3.1 mi Variable 1.2 mph - N/A   Mist
4:30 AM 28.4 °F 24.6 °F 28.4 °F 100% 30.27 in 3.1 mi ESE 3.5 mph - N/A   Mist
5:00 AM 28.4 °F 24.6 °F 28.4 °F 100% 30.27 in 3.7 mi ESE 3.5 mph - N/A   Unknown
5:30 AM 30.2 °F 26.7 °F 28.4 °F 93% 30.27 in 3.7 mi SE 3.5 mph - N/A   Unknown
6:00 AM 30.2 °F 26.7 °F 28.4 °F 93% 30.27 in 4.3 mi Variable 3.5 mph - N/A   Unknown
6:30 AM 28.4 °F - 28.4 °F 100% 30.27 in 4.3 mi Calm Calm - N/A   Unknown
7:00 AM 26.6 °F - 24.8 °F 93% 30.27 in 2.8 mi Calm Calm - N/A   Mist
7:30 AM 28.4 °F - 26.6 °F 93% 30.27 in 2.8 mi Calm Calm - N/A   Mist
8:00 AM 26.6 °F - 24.8 °F 93% 30.30 in 6.2 mi East 1.2 mph - N/A Fog Shallow Fog
8:30 AM 28.4 °F - 26.6 °F 93% 30.30 in - ESE 1.2 mph - N/A   Clear
9:00 AM 28.4 °F - 26.6 °F 93% 30.30 in - ESE 2.3 mph - N/A   Clear
9:30 AM 32.0 °F - 32.0 °F 100% 30.30 in - Calm Calm - N/A   Clear
10:13 AM 37.4 °F 34.9 °F 33.8 °F 87% 30.33 in - SE 3.5 mph - N/A   Clear
10:30 AM 37.4 °F 34.9 °F 33.8 °F 87% 30.33 in - Variable 3.5 mph - N/A   Clear
11:00 AM 41.0 °F - 35.6 °F 81% 30.33 in - Calm Calm - N/A   Clear
11:30 AM 44.6 °F - 37.4 °F 76% 30.33 in - Variable 2.3 mph - N/A   Clear
12:00 PM 48.2 °F - 37.4 °F 66% 30.33 in - Variable 2.3 mph - N/A   Clear
12:30 PM 50.0 °F - 39.2 °F 66% 30.33 in - Variable 1.2 mph - N/A   Clear
1:00 PM 51.8 °F - 39.2 °F 62% 30.33 in - Variable 2.3 mph - N/A   Clear
1:30 PM 53.6 °F - 41.0 °F 62% 30.30 in - Calm Calm - N/A   Clear
2:00 PM 53.6 °F - 39.2 °F 58% 30.30 in - Variable 1.2 mph - N/A   Clear
2:30 PM 55.4 °F - 39.2 °F 54% 30.30 in - Variable 2.3 mph - N/A   Clear
3:00 PM 55.4 °F - 35.6 °F 47% 30.30 in - Variable 3.5 mph - N/A   Clear
3:30 PM 55.4 °F - 37.4 °F 51% 30.30 in - Variable 3.5 mph - N/A   Clear
4:00 PM 53.6 °F - 39.2 °F 58% 30.30 in - NW 3.5 mph - N/A   Clear
4:30 PM 51.8 °F - 39.2 °F 62% 30.33 in - Variable 2.3 mph - N/A   Clear
5:00 PM 51.8 °F - 41.0 °F 67% 30.33 in - Calm Calm - N/A   Clear
5:30 PM 48.2 °F - 39.2 °F 71% 30.33 in - NW 2.3 mph - N/A   Clear
6:00 PM 44.6 °F - 37.4 °F 76% 30.33 in - WNW 2.3 mph - N/A   Clear
6:30 PM 41.0 °F - 37.4 °F 87% 30.33 in - Calm Calm - N/A   Clear
7:00 PM 39.2 °F - 37.4 °F 93% 30.33 in - Calm Calm - N/A   Clear
7:30 PM 37.4 °F - 33.8 °F 87% 30.36 in 4.3 mi East 1.2 mph - N/A   Unknown
8:00 PM 35.6 °F - 33.8 °F 93% 30.36 in 4.3 mi ESE 1.2 mph - N/A   Unknown
8:30 PM 35.6 °F - 33.8 °F 93% 30.36 in 4.3 mi SE 2.3 mph - N/A   Unknown
9:00 PM 33.8 °F 29.6 °F 32.0 °F 93% 30.36 in 3.7 mi SE 4.6 mph - N/A   Unknown
9:30 PM 33.8 °F 29.6 °F 32.0 °F 93% 30.36 in 3.1 mi ESE 4.6 mph - N/A   Mist
10:00 PM 35.6 °F 30.7 °F 33.8 °F 93% 30.36 in 3.1 mi SE 5.8 mph - N/A   Mist
10:30 PM 35.6 °F 32.8 °F 33.8 °F 93% 30.36 in 1.7 mi East 3.5 mph - N/A   Mist
11:00 PM 35.6 °F - 33.8 °F 93% 30.36 in - East 2.3 mph - N/A   Mist
11:30 PM 33.8 °F 30.8 °F 32.0 °F 93% 30.36 in - SE 3.5 mph - N/A   Mist